Location: Newark
(51.0500°N, 12.4500°E)
Time: 01:30:09
(UTC+00:00)

Vanguard 1 - Pass Details

Date: 26 February 2020
Orbit: 649 x 3833 km, 34.2° (Epoch: 06 April)

Event Time Altitude Azimuth Distance (km) Brightness Sun altitude
Rises 12:06:55 0° 273° (W) 7,019 14.5 29.4°
Reaches altitude 10° 12:14:02 10° 260° (W) 5,372 14.2 29.1°
Maximum altitude 12:22:38 18° 224° (SW) 3,791 14.4 28.8°
Drops below altitude 10° 12:28:53 10° 184° (S) 3,700 14.5 28.5°
Sets 12:32:31 0° 166° (SSE) 4,230 14.1 28.3°
